Location: Colossi of Memnon
(25.7167°N, 32.6167°E)
Time: 10:18:17
(UTC+00:00)

Cosmos 1933 - Pass Details

Date: 05 March 2021
Orbit: 547 x 563 km, 82.5° (Epoch: 21 April)

Event Time Altitude Azimuth Distance (km) Brightness Sun altitude
Rises 02:24:37 0° 174° (S) 2,699 6.9 -24.3°
Reaches altitude 10° 02:26:48 10° 169° (S) 1,811 6.0 -23.8°
Maximum altitude 02:30:40 50° 93° (E) 698 4.1 -22.9°
Drops below altitude 10° 02:34:34 10° 17° (NNE) 1,827 6.2 -22.1°
Sets 02:36:46 0° 13° (NNE) 2,727 7.1 -21.6°
